LRCT Weather Reports


time (UTC)temp
F
wind
direction
speed
knots
gust
knots
rain 1hr
in
rain 24hr
in
rain mn
in
humidity
%
barometer
mb
20260906023357 0 0.0 0.0 0.00 0.00 0.00
20260906021903 0 0.0 0.0 0.00 0.00 0.00
20260906020358 0 0.0 0.0 0.00 0.00 0.00
20260906014858 0 0.0 0.0 0.00 0.00 0.00
20260906013519 0 0.0 0.0 0.00 0.00 0.00
20260906011856 0 0.0 0.0 0.00 0.00 0.00
20260906010356 0 0.0 0.0 0.00 0.00 0.00
20260906005019 0 0.0 0.0 0.00 0.00 0.00
20260906003529 0 0.0 0.0 0.00 0.00 0.00
20260906002020 0 0.0 0.0 0.00 0.00 0.00
20260906000509 0 0.0 0.0 0.00 0.00 0.00
20260905234907 0 0.0 0.0 0.00 0.00 0.00
20260905233356 0 0.0 0.0 0.00 0.00 0.00
20260905232021 0 0.0 0.0 0.00 0.00 0.00
20260905230429 0 0.0 0.0 0.00 0.00 0.00
20260905225020 0 0.0 0.0 0.00 0.00 0.00
20260905223410 0 0.0 0.0 0.00 0.00 0.00
20260905222004 0 0.0 0.0 0.00 0.00 0.00
20260905220519 0 0.0 0.0 0.00 0.00 0.00
20260905215018 0 0.0 0.0 0.00 0.00 0.00
20260905213357 0 0.0 0.0 0.00 0.00 0.00
20260905211853 0 0.0 0.0 0.00 0.00 0.00
20260905210356 0 0.0 0.0 0.00 0.00 0.00
20260905204907 66 340 6.1 0.0 0.00 0.00 0.00 78 1019.0
20260905203356 66 340 6.1 0.0 0.00 0.00 0.00 78 1019.0
20260905201856 66 340 6.1 0.0 0.00 0.00 0.00 78 1019.0
20260905200519 0 0.0 0.0 0.00 0.00 0.00
20260905195012 0 0.0 0.0 0.00 0.00 0.00
20260905193357 70 300 7.8 0.0 0.00 0.00 0.00 64 1018.0
20260905191926 70 300 7.8 0.0 0.00 0.00 0.00 64 1018.0
20260905190357 0 0.0 0.0 0.00 0.00 0.00
20260905184854 72 300 7.8 0.0 0.00 0.00 0.00 61 1016.0
20260905183402 72 300 7.8 0.0 0.00 0.00 0.00 61 1016.0
20260905181853 72 300 7.8 0.0 0.00 0.00 0.00 61 1016.0
20260905180353 72 300 7.8 0.0 0.00 0.00 0.00 61 1016.0
20260905174850 75 350 7.8 0.0 0.00 0.00 0.00 54 1016.0
20260905173356 75 350 7.8 0.0 0.00 0.00 0.00 54 1016.0
20260905171858 75 350 7.8 0.0 0.00 0.00 0.00 54 1016.0
20260905170357 75 350 7.8 0.0 0.00 0.00 0.00 54 1016.0
20260905164857 77 350 12.2 21.7 0.00 0.00 0.00 51 1016.0
20260905163358 77 350 12.2 21.7 0.00 0.00 0.00 51 1016.0
20260905161855 77 350 12.2 21.7 0.00 0.00 0.00 51 1016.0
20260905160357 77 350 12.2 21.7 0.00 0.00 0.00 51 1016.0
20260905154907 81 350 14.8 25.2 0.00 0.00 0.00 42 1016.0
20260905153356 81 350 14.8 25.2 0.00 0.00 0.00 42 1016.0
20260905151857 81 350 14.8 25.2 0.00 0.00 0.00 42 1016.0
20260905150357 81 350 14.8 25.2 0.00 0.00 0.00 42 1016.0
20260905144850 86 350 14.8 25.2 0.00 0.00 0.00 35 1015.0
20260905143356 86 350 14.8 25.2 0.00 0.00 0.00 35 1015.0
20260905141854 86 350 14.8 25.2 0.00 0.00 0.00 35 1015.0
20260905140353 86 350 14.8 25.2 0.00 0.00 0.00 35 1015.0
20260905135016 0 0.0 0.0 0.00 0.00 0.00
20260905133357 88 350 15.6 0.0 0.00 0.00 0.00 33 1015.0
20260905131859 88 350 15.6 0.0 0.00 0.00 0.00 33 1015.0
20260905130418 88 350 15.6 0.0 0.00 0.00 0.00 33 1015.0
20260905124851 90 300 11.3 0.0 0.00 0.00 0.00 29 1015.0
20260905123357 90 300 11.3 0.0 0.00 0.00 0.00 29 1015.0
20260905121924 90 300 11.3 0.0 0.00 0.00 0.00 29 1015.0
20260905120357 90 300 11.3 0.0 0.00 0.00 0.00 29 1015.0
20260905114857 90 210 9.6 0.0 0.00 0.00 0.00 31 1015.0
20260905113357 90 210 9.6 0.0 0.00 0.00 0.00 31 1015.0
20260905111915 90 210 9.6 0.0 0.00 0.00 0.00 31 1015.0
20260905110356 90 210 9.6 0.0 0.00 0.00 0.00 31 1015.0
20260905104857 88 210 13.0 0.0 0.00 0.00 0.00 33 1016.0
20260905103357 88 210 13.0 0.0 0.00 0.00 0.00 33 1016.0
20260905101856 88 210 13.0 0.0 0.00 0.00 0.00 33 1016.0
20260905100357 88 210 13.0 0.0 0.00 0.00 0.00 33 1016.0
20260905095019 0 0.0 0.0 0.00 0.00 0.00
20260905093356 82 200 12.2 0.0 0.00 0.00 0.00 40 1016.0
20260905091857 82 200 12.2 0.0 0.00 0.00 0.00 40 1016.0
20260905090357 82 200 12.2 0.0 0.00 0.00 0.00 40 1016.0
20260905084856 77 140 6.1 0.0 0.00 0.00 0.00 51 1016.0
20260905083357 77 140 6.1 0.0 0.00 0.00 0.00 51 1016.0
20260905081856 77 140 6.1 0.0 0.00 0.00 0.00 51 1016.0
20260905080357 77 140 6.1 0.0 0.00 0.00 0.00 51 1016.0
20260905074856 0 0.0 0.0 0.00 0.00 0.00
20260905073405 0 0.0 0.0 0.00 0.00 0.00
20260905071857 0 0.0 0.0 0.00 0.00 0.00
20260905070357 0 0.0 0.0 0.00 0.00 0.00
20260905064858 0 0.0 0.0 0.00 0.00 0.00
20260905063358 0 0.0 0.0 0.00 0.00 0.00
20260905061857 0 0.0 0.0 0.00 0.00 0.00
20260905060358 0 0.0 0.0 0.00 0.00 0.00
20260905054857 59 160 2.6 0.0 0.00 0.00 0.00 94 1017.0
20260905053357 59 160 2.6 0.0 0.00 0.00 0.00 94 1017.0
20260905051856 59 160 2.6 0.0 0.00 0.00 0.00 94 1017.0
20260905050357 59 160 2.6 0.0 0.00 0.00 0.00 94 1017.0
20260905044857 55 130 4.3 0.0 0.00 0.00 0.00 100 1017.0
20260905043356 55 130 4.3 0.0 0.00 0.00 0.00 100 1017.0
20260905041857 55 130 4.3 0.0 0.00 0.00 0.00 100 1017.0
20260905040356 55 130 4.3 0.0 0.00 0.00 0.00 100 1017.0
20260905034858 55 2.6 0.0 0.00 0.00 0.00 100 1017.0
20260905033356 55 2.6 0.0 0.00 0.00 0.00 100 1017.0
20260905031857 55 2.6 0.0 0.00 0.00 0.00 100 1017.0
20260905030357 55 2.6 0.0 0.00 0.00 0.00 100 1017.0
20260905024910 57 2.6 0.0 0.00 0.00 0.00 82 1017.0